Home   Weather   Moreno Valley   Past weeks

Flag for USA Past Weather in Moreno Valley, California, USA — Yesterday and Last 2 Weeks

62 °F

Thundershowers. Overcast.

Feels Like: 62 °F
Forecast: 60 / 75 °F
Wind: 10 mph from West

Location: Riverside / March Air Force Base

Current Time: Oct 24, 2016 at 7:13:08 AM

Latest Report: Oct 24, 2016 at 6:58 AM

Visibility: 10 mi

Pressure: 30.07 "Hg

Humidity: 100%

Dew Point: 62 °F

Location of Moreno ValleyLocation

Past Weather in Moreno Valley — Graph


Moreno Valley Temperature Yesterday

Maximum temperature yesterday: 72 °F (at 12:00 PM)
Minimum temperature yesterday: 52 °F (at 3:58 AM)
Average temperature yesterday: 62 °F

High & Low Weather Summary for the Past Weeks

High94 °F (Oct 21, 1:58 PM)100% (Oct 12, 2:58 AM)30.09 "Hg (Oct 12, 2:58 AM)
Low47 °F (Oct 22, 6:58 AM)5% (Oct 20, 12:58 PM)29.81 "Hg (Oct 21, 3:58 PM)
Average66 °F58%29.96 "Hg
* Reported Oct 9 5:58 AM — Oct 24 5:58 AM, Moreno Valley, Weather by CustomWeather, © 2016

Note: Actual official high and low records may vary slightly from our data, if they occured in-between our weather recording intervals... More about our weather records


Moreno Valley Weather History for the Previous 24 Hours

Scroll right to see more
Time TempWeatherWind HumidityBarometerVisibility
5:58 AM
Mon, Oct 24
61 °FMostly cloudy.No wind100%30.02 "Hg10 mi
4:58 AM59 °FScattered showers. Passing clouds.No wind100%30.01 "Hg10 mi
3:58 AM60 °FPartly cloudy.No wind100%30.01 "Hg10 mi
2:58 AM61 °FPartly cloudy.No wind100%30.01 "Hg10 mi
1:58 AM62 °FScattered showers. Passing clouds.No wind100%30.02 "Hg10 mi
12:58 AM62 °FLight rain. Fog.No wind100%30.01 "Hg5 mi
11:58 PM
Sun, Oct 23
63 °FScattered showers. Passing clouds.No wind100%30.01 "Hg9 mi
10:58 PM62 °FThundershowers. Partly cloudy.No wind100%30.02 "Hg10 mi
9:58 PM63 °FThunderstorms. Passing clouds.No wind100%30.02 "Hg10 mi
8:58 PM63 °FPassing clouds.No wind100%30.02 "Hg10 mi
7:58 PM63 °FPassing clouds.No wind100%30.01 "Hg10 mi
6:58 PM64 °FPartly cloudy.5 mph96%30.01 "Hg10 mi
5:58 PM64 °FThunderstorms. Broken clouds.9 mph95%30.01 "Hg10 mi
4:58 PM66 °FLight rain. Partly sunny.9 mph94%30.02 "Hg10 mi
3:58 PM66 °FPartly sunny.5 mph83%30.03 "Hg10 mi
2:58 PM64 °FScattered showers. Partly sunny.3 mph83%29.99 "Hg10 mi
1:58 PM64 °FLight rain. Partly sunny.13 mph64%30.01 "Hg10 mi
12:58 PM66 °FLight rain. Cloudy.5 mph57%30.07 "Hg10 mi
12:00 PM72 °FLight rain. More clouds than sun.No wind23%30.09 "Hg10 mi
10:58 AM69 °FSunny.6 mph28%30.07 "Hg10 mi
9:58 AM66 °FScattered clouds.No wind27%30.04 "Hg10 mi
8:58 AM64 °FPartly sunny.3 mph29%30.03 "Hg10 mi
7:58 AM58 °FScattered clouds.No wind37%30.01 "Hg10 mi
Weather by CustomWeather, © 2016

See weather overviewHow to use our weather pages